Tracking 19564 objects as of 20-Mar-2019
HD Live streaming from Space Station
objects crossing your sky now

SL-8 R/B

Track SL-8 R/B now!
10-day predictions


NORAD ID: 10020
Int'l Code: 1977-039B
Perigee: 955.9 km
Apogee: 1,000.3 km
Inclination: 82.9 °
Period: 104.5 minutes
Semi major axis: 7349 km
RCS: 4.936 m2 (large)
Launch date: May 25, 1977
Source: Commonwealth of Independent States (former USSR) (CIS)
Launch site: PLESETSK MISSILE AND SPACE COMPLEX (PKMTR)

Note: This is a ROCKET BODY
aabbcc
Your satellite tracking list
Your tracking list is empty




NASA's NSSDC Master Catalog

Two Line Element Set (TLE):
1 10020U 77039B   19077.88314312 +.00000129 +00000-0 +11324-3 0  9999
2 10020 082.9428 247.2924 0030242 317.8806 042.0027 13.78013366101715
Source of the keplerian elements: AFSPC